Theta_e
332 332 333 333 332 332 331 329 328 328 328 326 325 324 322 320 319 318 318 317 316 315 315 314 314 315 315 314 314 313 312 311 310 311 311 310 309 310 310 310 311 313 313 314 316 316 314 315 316 315 315 313 311 313 314 315 316 317 318 318 318 318 318 318 320 320 321 323 324 325 326 326 326 326 327 328 328 329 330 328 327 328 328 328 326
331 331 333 332 331 330 330 329 329 329 327 325 325 324 321 318 317 316 315 314 313 313 313 312 312 314 314 313 312 311 312 310 310 310 310 309 309 309 309 310 312 314 314 315 316 315 314 315 316 315 314 311 310 312 313 314 315 316 317 318 318 318 319 319 319 320 322 323 324 325 326 326 325 325 326 327 326 327 328 327 327 328 328 326 324
332 332 332 332 330 330 330 330 330 328 325 324 323 322 319 317 316 316 315 314 313 312 311 311 311 312 312 312 311 311 311 310 309 310 309 309 310 309 310 311 313 314 315 315 314 314 313 315 316 314 312 310 310 311 312 313 313 314 316 317 318 318 318 319 319 320 321 322 323 325 326 326 325 326 326 326 325 325 326 327 326 327 328 326 323
335 333 332 331 331 331 331 331 329 326 324 324 322 320 318 317 316 315 315 314 314 313 311 310 310 311 311 311 310 310 310 309 308 309 308 309 310 310 310 312 312 313 315 314 314 313 313 315 315 313 311 309 308 309 311 312 312 312 314 315 317 318 319 319 318 318 319 320 322 324 325 325 326 327 326 325 324 324 325 326 325 326 327 326 324
336 335 332 331 331 331 329 329 327 325 325 323 320 319 318 317 317 315 315 315 314 313 311 309 310 310 309 309 308 308 309 308 308 309 309 310 311 310 310 311 312 312 313 313 313 313 313 315 315 313 311 308 306 306 308 309 308 309 311 313 314 317 319 318 318 318 318 319 320 322 323 324 326 326 325 325 324 323 325 325 324 325 325 325 325
335 334 333 331 331 330 327 326 326 326 325 323 320 318 318 317 316 315 314 313 313 311 309 307 308 308 308 308 309 309 309 309 309 310 310 310 310 310 310 311 311 311 311 311 312 312 313 314 315 313 310 308 308 307 307 306 306 306 308 311 312 314 316 318 318 317 317 318 319 320 320 322 324 324 324 325 324 322 324 325 324 324 324 324 325
334 333 331 331 330 328 326 326 325 323 322 321 319 317 317 316 315 314 312 310 310 309 307 306 307 307 307 308 309 310 310 310 310 310 310 309 309 309 309 310 310 310 310 310 311 312 313 314 314 313 311 309 310 309 307 305 304 304 305 308 311 312 314 317 318 317 317 317 317 318 318 319 321 322 324 325 325 323 322 323 324 324 324 323 323
337 334 330 328 328 326 326 327 324 321 320 319 318 317 316 314 313 312 311 309 308 307 306 306 307 307 308 309 309 309 310 309 309 310 309 309 309 308 309 309 309 309 309 310 310 311 313 313 313 312 311 309 309 307 306 305 304 304 304 306 309 310 312 315 317 317 317 316 316 317 318 318 319 321 323 324 325 325 323 322 323 324 323 320 319
333 331 328 326 326 326 326 326 323 320 320 319 317 316 315 313 311 310 309 308 306 306 306 306 307 307 308 309 309 309 309 309 309 309 309 309 309 308 308 309 308 308 309 309 309 311 313 313 311 310 309 308 307 306 305 304 305 306 307 307 308 309 310 312 315 316 316 316 316 317 317 318 319 320 322 323 323 324 324 323 322 323 322 318 316
329 327 327 326 326 326 325 325 322 320 320 318 317 316 315 313 310 309 308 307 305 306 306 306 307 308 308 309 309 309 310 309 309 309 309 309 309 308 308 309 308 308 308 308 309 311 313 312 309 308 307 306 305 305 305 306 307 308 308 308 308 309 309 311 312 313 314 315 315 316 317 318 318 320 322 323 322 323 323 323 322 322 322 318 314
328 326 325 325 325 325 323 322 320 319 318 317 317 316 314 312 310 308 307 306 305 306 306 307 307 308 308 309 309 308 309 310 309 309 309 309 308 308 308 308 308 308 308 308 310 311 312 310 309 308 307 305 305 305 307 307 307 307 308 308 308 308 309 309 310 311 312 313 314 315 316 317 318 319 321 322 322 323 323 323 323 322 321 318 313
329 327 324 322 322 321 321 320 319 318 318 316 316 315 312 309 308 307 306 306 305 306 307 307 308 308 308 309 309 308 307 309 309 308 308 308 308 308 308 308 308 307 308 309 310 311 310 309 308 307 305 304 305 306 308 307 307 308 308 308 307 307 308 308 309 310 311 312 313 313 315 316 318 319 320 321 322 322 323 323 322 321 321 316 311
330 329 323 320 320 320 319 319 318 318 317 314 313 313 311 308 307 306 306 306 306 306 307 307 307 308 308 308 309 307 307 308 308 308 308 308 308 308 308 308 308 308 309 309 309 309 309 308 306 305 303 303 305 307 307 307 308 308 307 306 306 307 307 308 308 309 310 311 312 313 314 316 318 319 320 320 321 321 322 322 321 320 319 314 309
330 329 323 320 320 320 318 318 318 317 315 311 310 311 310 307 306 305 305 306 306 306 307 307 307 308 307 308 308 307 306 307 307 308 308 308 308 308 308 308 308 309 309 309 309 309 308 306 305 303 302 303 305 306 307 307 307 307 306 305 306 307 307 308 309 309 310 311 312 313 314 316 318 318 319 319 320 321 321 321 321 319 316 312 310
328 327 323 321 321 320 318 318 317 316 313 310 308 309 309 307 306 306 305 305 306 306 306 306 307 307 307 307 308 306 306 307 307 307 307 307 308 308 308 308 308 308 309 309 309 308 307 305 304 303 302 303 305 306 307 307 307 305 305 306 306 307 308 308 309 310 311 312 313 313 314 316 317 317 317 318 320 321 321 320 320 318 314 313 312
327 327 324 322 321 320 319 318 318 314 309 308 307 308 308 307 305 306 306 305 306 306 306 306 306 306 307 307 307 306 306 307 307 306 306 307 307 307 307 307 307 307 308 309 308 307 306 304 303 302 302 303 304 305 306 306 305 304 305 306 307 307 308 308 309 311 312 313 314 314 314 315 316 317 318 318 320 321 321 320 319 317 315 315 313
327 326 324 322 322 321 319 319 317 312 307 306 306 306 307 307 306 306 306 306 306 306 305 306 306 306 307 307 306 306 306 306 306 306 306 306 306 306 307 307 307 307 308 309 308 306 305 303 303 302 302 303 304 305 305 304 304 304 306 307 306 307 308 308 310 312 313 314 315 315 315 316 317 318 318 319 320 321 321 321 319 316 315 316 314
325 324 321 321 322 321 320 320 316 310 307 306 306 305 305 306 306 306 306 306 306 305 305 306 306 306 306 306 306 306 306 306 306 306 306 306 306 306 306 306 306 307 308 308 307 306 304 303 302 301 302 303 303 303 303 304 304 305 307 307 306 307 308 309 309 312 313 313 315 315 315 316 317 318 318 320 321 321 321 321 320 317 315 315 315
325 325 321 319 320 319 319 319 315 310 307 306 306 306 305 305 305 306 306 306 305 305 305 305 306 306 306 306 306 306 306 305 305 305 305 305 305 306 305 305 306 307 308 308 307 305 304 303 301 301 302 303 302 301 302 304 304 305 306 307 307 307 308 309 309 312 313 313 314 314 314 315 316 317 318 319 320 320 320 321 321 318 315 314 314
326 326 322 318 318 316 313 312 311 309 307 307 306 306 305 305 305 306 306 305 305 305 305 305 306 306 306 306 306 305 305 304 304 304 305 305 305 305 305 305 306 307 308 308 306 304 303 302 301 300 301 301 300 300 302 304 305 305 305 306 307 308 309 309 310 312 313 313 313 312 311 312 314 317 318 318 319 319 319 320 320 317 316 315 313
325 324 318 315 316 315 310 308 308 308 308 307 306 306 305 305 305 305 305 305 305 305 305 305 306 306 305 305 305 304 304 303 303 304 304 304 304 304 305 305 305 306 307 308 306 304 303 302 300 300 300 300 299 300 303 304 305 305 305 305 306 308 309 310 311 312 313 313 312 312 310 309 311 315 318 319 319 319 319 320 319 317 316 316 314
325 321 315 312 313 312 310 309 308 308 307 307 306 306 305 305 304 305 305 305 305 304 305 305 305 305 305 305 304 303 303 302 302 303 303 303 303 303 304 305 305 306 307 307 305 303 303 301 300 299 299 299 300 301 303 304 305 305 305 304 306 308 309 310 311 312 312 313 313 312 311 309 308 311 315 318 319 320 320 319 319 318 318 317 314
321 318 314 312 310 310 309 309 308 308 307 306 306 306 305 304 304 304 305 305 305 305 305 305 305 305 305 304 303 302 302 302 302 302 302 302 303 303 304 305 305 306 306 306 305 304 303 301 299 299 299 299 300 302 303 305 305 305 304 304 306 309 310 310 311 312 312 313 313 312 311 310 308 308 312 317 319 319 320 320 319 318 317 316 313
316 313 311 310 309 309 309 309 308 308 306 305 306 305 305 304 304 304 305 305 305 305 305 305 305 305 304 303 302 302 301 301 302 302 302 302 302 302 303 304 305 305 305 306 305 304 302 300 299 299 298 299 301 302 303 304 305 305 303 303 306 309 310 310 310 311 312 311 312 312 311 310 309 307 309 313 317 319 319 319 319 317 316 314 311
314 312 310 309 308 308 308 308 308 307 305 305 306 305 305 304 304 305 305 305 305 305 305 305 304 304 303 302 302 301 301 301 301 301 301 301 302 302 303 304 305 304 304 305 305 304 302 300 299 298 298 299 301 301 302 303 305 305 303 303 305 308 309 310 309 310 310 310 310 309 309 309 309 308 308 311 315 318 318 319 319 316 315 313 311
315 314 312 310 308 308 307 307 306 305 305 305 305 305 305 304 304 305 305 305 305 305 305 305 304 303 302 302 301 301 301 301 301 301 301 301 302 302 303 303 304 304 304 303 303 303 301 299 299 298 298 300 301 301 301 302 304 305 304 303 305 307 308 309 309 308 307 308 308 307 308 309 308 308 309 310 313 317 318 318 318 316 314 312 311
315 315 313 311 309 307 307 306 305 305 305 305 305 305 305 304 304 305 305 305 304 305 305 304 303 302 302 302 301 301 300 300 300 301 301 301 301 301 302 302 303 303 303 302 301 302 301 299 299 297 297 299 299 299 301 302 303 304 303 303 304 306 307 308 308 307 305 304 305 306 307 309 309 309 309 310 313 317 318 318 319 317 315 313 311
315 315 315 314 311 308 307 306 305 305 305 305 305 305 304 304 304 304 305 305 304 304 304 304 303 302 302 301 301 300 300 300 300 301 301 301 301 301 302 302 302 303 302 301 300 300 300 299 299 297 297 299 299 298 299 300 301 303 302 302 303 304 306 307 307 307 305 303 304 305 306 308 309 310 310 310 313 317 318 318 318 317 315 313 311
316 315 317 316 311 307 306 306 305 305 305 305 305 304 304 304 304 304 305 304 304 304 304 303 303 302 302 301 301 300 300 300 301 301 301 301 301 301 301 301 301 301 301 300 300 299 299 299 299 297 297 298 298 297 296 297 300 301 301 301 302 303 305 307 306 306 305 304 302 303 304 305 307 310 310 310 313 317 317 317 317 316 314 312 311
316 316 316 313 309 307 307 306 305 305 305 305 304 304 304 304 304 305 305 304 304 304 304 303 303 302 302 301 301 300 300 300 301 301 301 301 300 301 300 300 300 300 300 300 299 299 299 299 299 297 296 297 296 295 297 299 300 301 301 301 302 302 304 305 305 305 305 303 302 301 302 302 305 309 310 311 314 317 317 317 317 316 315 314 313
315 315 315 311 308 307 307 306 306 305 305 305 304 304 304 304 304 304 305 304 304 304 303 303 302 302 302 301 301 300 300 300 300 301 301 300 300 300 300 299 299 299 299 299 299 299 299 298 298 297 296 296 295 296 299 302 302 301 301 300 301 302 303 304 304 304 304 303 302 301 301 301 302 306 311 313 315 317 317 317 317 316 316 316 315
315 315 315 311 308 307 307 306 306 305 305 304 304 304 304 304 304 304 305 304 304 304 303 302 303 302 302 301 301 300 300 300 300 300 300 300 300 300 300 299 299 299 299 299 298 298 298 297 297 296 295 294 294 296 300 301 302 302 301 300 301 301 302 302 302 303 303 303 302 301 301 300 299 303 310 314 316 316 316 317 317 317 317 317 317
315 315 314 311 308 307 306 306 305 305 305 304 304 304 304 304 304 304 305 304 303 303 303 302 303 302 302 301 300 300 299 299 300 300 300 300 299 299 299 299 299 298 298 298 298 297 297 297 296 295 294 293 293 295 298 300 301 301 300 300 300 301 301 301 300 301 302 302 302 302 301 300 298 300 307 313 315 315 315 315 315 315 316 317 317
315 314 312 309 308 307 305 305 305 305 305 304 304 304 304 304 304 304 304 304 303 303 303 303 303 302 302 301 300 300 299 299 299 299 299 299 299 299 299 299 298 298 298 297 297 296 296 296 296 294 293 293 292 294 297 298 299 300 300 300 300 300 301 300 299 299 301 302 301 302 302 301 298 298 301 307 311 314 315 315 314 313 314 314 315
315 312 309 307 307 306 305 305 305 304 304 304 303 304 304 304 304 304 304 304 303 303 303 303 303 302 301 301 300 299 298 298 299 299 298 298 298 298 298 298 298 297 297 296 296 296 295 295 295 293 293 292 292 293 296 297 298 299 299 299 299 300 300 300 299 298 299 300 301 301 302 302 300 299 299 302 306 310 314 316 315 314 313 313 312
313 310 308 307 306 306 305 305 304 304 304 304 303 304 304 304 304 304 304 304 303 303 303 303 303 302 301 301 300 298 298 298 298 298 298 297 297 297 297 297 297 297 296 296 295 294 294 293 293 293 292 292 292 292 294 296 297 299 299 299 298 299 299 299 299 298 298 298 299 300 301 302 302 302 301 302 304 307 311 313 315 315 315 314 313
310 309 308 307 307 306 305 305 304 304 303 303 303 303 304 303 304 304 304 304 303 303 303 303 302 302 301 301 300 298 297 298 298 298 298 297 296 296 297 297 297 296 296 295 294 293 293 292 292 292 292 292 292 292 293 295 296 297 299 298 297 297 298 298 298 299 299 298 297 298 299 301 302 302 302 303 304 306 307 308 310 312 315 316 315
309 309 308 307 306 306 305 304 304 303 303 303 303 303 303 304 304 303 304 304 303 303 302 302 302 301 301 300 299 297 296 297 297 297 297 296 295 295 296 296 296 295 295 294 293 292 292 292 292 292 292 292 291 291 292 293 295 296 297 297 296 296 297 297 297 299 299 299 298 297 297 298 299 301 302 303 303 304 305 305 305 307 309 312 314
309 308 307 306 305 304 304 304 304 303 303 303 303 303 303 303 304 303 303 303 303 303 302 302 302 301 300 299 299 297 295 295 296 295 295 295 295 295 296 296 295 295 294 293 292 292 292 291 291 291 291 291 291 291 291 292 293 295 295 295 295 295 295 295 296 297 298 299 299 298 297 297 298 299 301 302 302 303 304 304 305 306 306 307 309
308 307 306 305 304 304 304 304 304 304 303 303 303 303 303 304 303 303 303 303 303 302 302 302 302 301 299 299 298 297 294 294 293 293 293 294 294 295 295 295 294 293 293 292 291 291 291 291 291 291 291 291 291 291 291 291 292 293 294 294 294 294 293 294 294 296 296 297 298 298 297 297 297 299 300 301 302 302 303 303 304 304 304 305 307
307 306 306 305 304 304 304 303 304 304 303 303 303 303 303 304 304 303 303 303 302 302 302 302 301 301 299 299 299 297 295 294 293 292 292 293 294 294 294 294 293 292 292 291 291 291 291 291 291 291 291 291 291 290 290 291 291 292 293 293 292 292 292 292 293 294 295 294 295 296 296 296 297 298 300 301 301 302 302 303 302 302 303 305 307
307 306 305 305 304 304 304 303 303 303 303 303 303 303 303 304 304 303 303 303 302 302 302 302 301 300 299 299 299 298 296 295 294 293 292 291 292 293 293 292 292 291 291 291 290 290 290 290 291 291 291 291 291 291 290 290 291 291 292 292 291 291 291 291 292 293 293 293 294 294 293 295 296 298 299 300 300 301 302 301 301 302 305 307 308
306 306 305 305 304 304 304 304 303 303 303 303 302 303 303 303 304 304 303 303 302 301 302 302 301 300 299 299 299 298 297 296 295 294 292 291 291 292 292 291 291 290 290 290 290 290 290 290 290 290 291 292 292 291 290 290 291 291 292 291 291 291 291 291 291 290 291 292 294 294 294 295 298 299 299 299 300 300 300 300 301 303 305 307 308
306 305 305 305 304 305 304 304 304 303 303 303 302 303 303 303 303 304 303 303 302 301 301 302 301 300 299 299 299 298 297 296 295 295 293 291 290 291 291 291 290 289 289 289 289 289 289 289 289 289 290 291 292 291 290 290 291 292 292 291 291 291 291 290 290 289 289 291 293 294 295 297 299 299 299 299 299 299 299 299 300 302 304 306 307
306 305 305 304 304 304 304 303 304 303 303 302 302 303 303 303 303 303 303 303 302 302 301 301 301 300 300 299 299 298 297 296 296 295 294 291 290 290 290 290 289 289 289 289 289 289 289 289 289 289 289 290 291 291 290 289 291 292 292 292 292 291 290 289 289 289 289 290 292 294 296 298 299 300 300 300 300 299 298 298 299 300 301 302 302
305 305 305 304 304 304 303 303 303 303 303 302 302 303 303 303 303 303 303 303 302 302 302 301 301 300 300 299 299 298 298 297 296 295 294 292 290 289 289 290 290 289 289 289 289 289 289 289 289 289 289 290 290 290 289 288 289 291 293 293 293 292 291 290 289 288 288 290 293 295 297 298 298 298 299 298 298 298 299 298 298 298 298 297 297
304 304 304 304 304 303 303 303 303 303 303 302 302 303 303 303 303 303 303 302 302 302 302 301 301 301 300 299 299 298 298 297 296 295 294 292 291 290 289 289 290 289 289 289 289 289 289 288 289 289 289 290 290 290 289 288 287 288 291 292 293 292 291 290 289 288 288 289 290 292 294 296 297 297 297 296 296 297 298 298 298 296 295 294 293
304 304 304 304 303 303 303 303 303 302 302 302 302 302 302 302 303 303 303 302 301 302 302 301 301 301 300 300 299 299 298 297 296 295 294 292 291 290 289 289 289 289 289 289 289 289 289 288 289 289 289 289 289 289 289 287 286 285 287 288 289 289 289 288 287 286 286 287 289 291 293 296 297 297 296 295 294 294 294 294 296 295 294 293 293
303 304 304 304 303 303 303 302 302 302 302 302 302 302 302 302 302 303 302 301 301 302 302 301 301 301 301 300 299 299 298 298 297 295 294 292 290 289 289 288 289 289 289 289 289 289 289 288 288 289 289 289 289 288 288 287 285 284 285 285 286 286 286 286 286 286 287 288 289 289 289 289 289 288 288 287 287 288 288 289 291 294 295 295 294
303 303 304 303 303 303 303 302 303 302 302 302 302 302 302 302 301 302 301 301 300 301 301 301 300 300 300 300 300 299 299 298 297 296 295 292 290 289 288 288 288 289 289 288 289 289 289 288 288 289 289 289 288 288 287 286 285 284 284 284 284 285 286 286 286 289 290 288 285 284 283 283 283 283 283 283 283 283 284 285 286 289 291 292 291
303 303 304 303 303 303 303 302 302 301 301 302 301 302 302 301 301 302 301 300 300 300 300 300 300 299 299 299 299 299 299 298 298 297 296 294 291 289 288 287 288 288 289 289 289 289 288 288 288 288 288 288 288 288 287 286 285 284 283 283 283 285 286 285 286 289 288 284 281 281 281 281 281 281 281 282 282 282 282 283 283 284 286 287 287
Wind_Speed
6 8 9 10 11 12 15 17 18 20 20 21 22 23 23 23 23 24 24 23 24 24 24 24 25 24 24 24 23 25 27 27 26 25 27 28 26 25 25 24 24 25 24 27 28 27 28 27 25 25 26 27 28 27 27 27 27 27 27 27 26 27 25 23 24 24 19 14 13 12 10 12 15 16 19 18 18 23 26 25 25 26 25 24 23
6 9 10 12 14 15 16 17 18 19 19 20 21 21 22 22 23 23 22 23 24 24 23 23 24 23 23 24 23 24 27 28 26 26 27 27 25 25 24 24 25 26 25 27 28 27 29 28 25 26 27 28 28 28 28 27 27 27 26 27 26 25 24 22 24 21 15 13 13 10 8 10 13 17 20 20 19 22 25 27 28 28 26 24 23
6 8 10 11 13 14 15 15 15 16 18 18 18 19 20 21 22 22 22 22 23 23 23 22 22 21 22 23 24 24 26 26 24 24 26 26 25 25 24 25 27 28 27 27 29 28 29 28 25 26 28 28 29 29 30 29 29 28 26 25 25 24 24 24 24 19 15 17 13 6 4 4 6 11 15 17 19 21 24 27 28 28 27 24 23
4 5 7 9 10 11 11 12 14 16 17 17 17 18 19 20 20 20 21 22 22 23 23 21 20 20 20 21 22 23 24 26 25 25 26 25 25 25 24 26 27 28 28 27 28 29 30 27 23 25 26 27 28 29 30 29 29 29 28 26 24 22 22 23 24 20 18 17 9 3 3 2 3 3 5 9 15 21 24 22 21 25 27 24 23
4 4 5 7 9 10 11 13 14 15 16 17 18 19 19 19 20 20 20 20 22 23 24 23 22 22 22 23 24 25 26 26 27 27 26 25 26 25 24 25 27 28 28 28 29 29 31 27 23 25 26 26 29 30 29 29 30 29 28 27 25 22 21 22 23 22 21 17 8 5 4 2 2 3 3 5 10 17 17 17 20 23 26 26 25
3 4 4 6 7 9 13 15 15 16 16 18 18 18 19 20 20 20 20 21 22 23 24 23 23 24 24 25 26 25 24 24 25 25 26 26 26 25 24 25 28 29 28 28 29 29 30 25 22 24 26 27 30 31 32 31 31 30 28 27 26 23 22 21 21 22 23 18 12 11 10 8 8 5 2 2 5 11 10 14 23 22 21 26 27
3 4 4 5 7 9 12 13 16 17 17 16 17 18 19 19 19 20 21 21 22 22 22 22 22 22 22 23 23 22 21 23 24 24 24 25 25 24 24 25 28 27 27 28 29 30 29 24 22 23 25 28 31 33 33 32 31 31 28 26 25 24 22 20 20 22 21 18 18 18 16 15 15 12 6 3 1 5 6 11 21 19 17 19 22
4 3 4 6 8 10 11 11 15 17 15 15 17 18 18 18 19 20 21 21 21 20 21 21 21 21 22 23 24 23 23 24 24 23 23 23 24 25 25 26 26 26 27 28 29 31 28 24 23 24 26 29 32 32 33 33 32 32 29 26 25 24 23 20 20 20 18 19 22 21 19 17 17 18 17 11 2 2 4 6 12 16 15 14 17
4 5 6 9 11 11 11 12 15 15 15 15 17 16 15 17 19 20 20 20 19 19 20 21 21 22 23 24 24 23 22 23 23 23 24 24 25 26 27 27 26 26 27 28 31 31 27 24 24 27 29 30 31 32 33 33 33 31 28 26 25 25 23 21 21 21 20 20 21 20 19 18 16 18 20 17 9 5 3 2 4 9 12 13 19
6 7 8 9 10 10 12 16 16 15 15 15 15 14 14 16 18 18 18 18 18 18 19 20 20 21 22 23 24 23 22 22 24 25 25 26 27 27 28 28 27 27 27 29 32 29 23 23 27 30 32 32 33 34 34 34 32 30 27 25 25 26 25 22 21 21 21 21 21 20 18 16 13 11 12 14 11 8 5 4 5 7 7 11 20
6 7 10 12 12 12 16 17 16 14 14 14 14 13 14 15 16 16 16 17 18 17 19 20 20 20 21 21 23 24 23 23 24 25 26 26 27 27 28 28 28 27 27 31 31 24 20 25 30 33 34 35 36 36 34 33 32 30 28 26 26 27 26 25 24 23 23 22 22 21 18 17 14 10 12 13 9 5 5 6 7 10 10 12 18
6 6 9 13 15 15 16 15 13 13 12 12 12 12 13 14 14 15 16 17 17 17 19 20 20 20 20 21 22 23 23 23 24 24 25 26 26 27 27 29 29 27 29 32 27 22 24 29 32 34 36 36 36 36 35 33 32 30 29 28 28 28 27 26 26 25 25 24 23 23 22 21 18 16 17 16 12 9 7 5 7 12 10 11 19
6 6 6 10 13 13 14 13 11 10 10 11 12 11 12 13 14 15 16 15 16 17 18 20 20 20 20 20 21 22 22 22 23 24 25 25 26 26 27 28 28 28 30 29 23 23 28 31 33 35 36 37 37 37 36 34 33 31 29 29 28 28 28 28 28 27 26 25 24 24 23 21 18 16 15 13 14 13 10 6 8 13 9 10 20
6 6 6 8 11 12 11 9 8 9 10 11 12 11 11 13 14 15 15 14 15 16 17 19 20 20 20 20 20 21 22 22 23 24 24 25 26 26 27 27 27 29 30 25 22 26 30 32 34 36 37 39 38 37 37 34 32 30 29 29 28 28 29 30 29 28 27 25 24 24 22 18 15 13 11 11 13 13 10 7 7 10 10 11 15
6 6 7 10 12 12 10 8 7 10 11 11 12 11 11 12 14 15 15 15 15 16 17 19 19 19 19 19 20 21 22 21 22 24 24 25 26 26 26 26 26 29 27 22 22 28 31 33 35 36 38 40 39 38 37 34 32 30 29 29 29 29 31 31 31 30 28 24 22 20 17 14 13 11 10 12 13 14 13 14 13 8 7 9 9
6 6 7 11 13 12 11 9 9 12 13 12 13 13 12 12 13 14 15 16 16 17 18 19 18 19 19 20 21 22 22 22 23 24 24 25 26 26 25 24 25 28 25 19 23 29 31 34 35 36 39 40 39 39 36 33 32 31 31 31 30 31 32 32 32 30 26 20 17 15 12 11 11 9 9 11 12 13 14 19 23 16 9 7 7
7 7 8 11 13 13 12 10 11 14 14 13 14 15 14 12 12 12 14 17 18 17 18 19 18 19 20 21 22 22 22 23 24 24 23 24 25 25 24 23 25 28 23 18 24 30 31 34 35 37 39 40 40 39 35 32 33 33 32 30 31 33 33 34 33 30 25 19 14 12 10 10 8 5 5 8 7 8 11 17 24 24 20 11 6
7 8 10 13 13 12 12 10 12 14 14 14 14 14 14 13 12 11 13 16 18 18 18 18 18 19 21 22 22 22 22 23 24 23 23 24 25 23 24 25 28 28 22 18 24 31 32 34 36 37 40 40 40 38 34 33 34 34 32 30 31 33 33 33 34 33 29 24 18 16 16 15 11 8 5 2 0 4 8 13 19 23 24 18 10
7 6 8 11 12 12 12 12 14 15 14 14 14 14 14 13 12 12 14 16 18 18 18 18 18 20 21 21 22 22 22 23 23 22 23 24 23 23 25 27 28 27 20 18 26 31 32 34 36 38 40 40 40 38 35 35 36 35 33 32 32 34 33 33 34 34 31 28 24 23 23 21 16 12 10 9 5 3 3 7 17 21 19 19 18
6 5 6 10 12 14 16 17 17 16 15 14 14 14 14 13 11 11 14 16 17 17 17 18 18 20 21 21 22 22 23 24 23 22 22 23 23 24 25 26 27 25 19 19 27 30 31 34 36 38 40 39 39 37 35 35 36 34 33 33 34 34 34 34 34 33 30 28 26 26 27 26 20 15 12 10 8 6 4 4 18 26 20 18 22
6 5 7 10 13 16 17 17 17 16 14 13 13 13 14 14 12 11 13 16 17 17 17 18 19 21 22 22 23 23 24 24 22 21 23 24 24 25 25 24 25 24 18 19 26 29 31 35 36 38 39 38 39 38 35 36 37 35 34 33 34 34 34 34 33 31 29 27 26 26 28 30 26 20 16 13 9 7 7 11 21 28 22 20 24
6 6 10 13 16 18 17 17 16 14 13 12 12 13 13 14 13 11 13 16 18 18 17 18 20 22 22 22 23 24 24 23 22 23 24 25 26 27 26 24 25 24 18 19 25 29 32 35 37 38 39 39 39 38 35 35 37 37 35 34 34 34 33 33 33 31 30 28 26 25 26 29 28 26 24 18 12 8 11 16 22 25 21 18 22
6 9 12 14 16 18 18 17 16 14 14 13 13 14 14 14 13 12 13 16 18 17 17 18 21 21 22 23 24 24 24 23 24 25 25 26 26 27 27 26 25 24 20 19 24 29 32 35 37 38 40 40 40 37 35 35 36 36 35 33 33 34 32 31 31 31 30 29 28 26 26 26 27 28 29 24 17 12 13 17 22 24 21 17 22
8 10 13 14 16 17 17 16 15 14 14 14 14 14 15 15 14 13 14 17 18 17 17 19 21 21 22 23 24 24 24 23 24 25 26 27 28 28 27 26 25 25 23 21 22 28 32 36 37 38 40 41 40 38 36 35 35 34 33 32 32 33 32 30 30 30 30 29 28 26 26 28 28 30 31 27 21 16 14 18 23 24 22 20 23
9 9 11 13 14 14 14 15 15 15 15 15 15 15 14 15 14 13 15 17 17 17 18 19 20 21 23 23 24 25 24 24 24 25 26 28 29 29 28 27 25 25 26 23 22 27 32 35 35 36 39 41 40 40 39 36 33 32 32 32 33 32 31 31 31 31 30 30 28 27 27 29 31 31 31 28 24 19 16 19 23 24 22 22 24
9 9 10 11 13 14 14 15 15 16 17 16 16 15 14 15 14 13 15 17 17 17 18 19 20 22 23 23 23 24 24 23 24 25 27 28 29 29 28 28 26 25 26 26 24 25 30 33 33 35 39 41 41 41 40 36 33 31 31 33 33 32 31 30 31 32 32 31 30 29 29 30 30 30 28 28 25 20 18 20 22 23 21 23 26
9 8 9 10 12 14 14 14 15 16 17 16 15 14 13 14 13 13 15 16 16 16 17 18 20 22 22 22 23 24 23 23 24 26 28 28 29 29 28 28 27 26 26 27 26 25 27 30 33 35 39 41 42 43 41 37 33 31 31 32 32 32 31 30 31 33 34 32 30 31 31 31 30 28 26 26 24 21 19 20 21 22 21 23 26
8 8 9 9 10 13 15 15 15 17 17 15 14 13 12 13 14 14 15 15 15 16 16 18 19 21 22 22 23 24 23 23 24 26 27 28 27 28 28 28 28 26 25 27 28 26 26 28 31 36 40 41 43 44 42 38 34 31 31 31 31 31 32 31 31 32 34 34 32 32 32 32 31 27 23 23 22 20 21 21 21 23 23 23 24
8 9 8 8 9 12 15 16 16 17 16 14 14 13 12 13 14 14 14 15 15 15 16 17 19 20 21 22 23 24 24 24 26 27 27 27 27 28 28 28 28 27 25 26 28 28 28 27 29 34 39 41 43 42 39 37 35 32 31 30 30 30 30 31 31 32 34 35 34 34 34 35 33 27 20 19 21 21 21 22 22 23 24 23 21
9 9 8 9 12 14 16 15 15 16 15 13 12 11 12 14 15 14 15 14 14 15 16 17 18 19 20 21 22 23 24 25 27 28 27 27 27 27 28 27 27 27 26 26 27 28 29 28 28 32 38 41 42 40 38 36 34 31 30 30 29 29 29 30 31 31 33 34 35 35 36 38 37 29 21 18 22 22 20 20 21 22 21 20 19
9 9 8 10 13 15 15 14 14 15 14 13 12 11 13 14 15 15 15 14 14 15 16 17 18 18 19 21 22 23 24 25 26 27 27 27 27 27 27 26 27 27 26 26 28 29 30 29 28 29 34 39 41 39 37 36 33 31 30 29 29 29 29 29 30 30 30 33 35 36 37 39 39 33 24 19 20 22 20 18 19 20 19 16 15
10 9 9 10 12 15 16 15 15 15 14 14 13 13 14 15 15 15 14 14 14 14 16 17 17 17 18 21 22 23 24 25 25 26 26 26 27 27 26 26 27 26 26 27 28 29 30 30 29 28 30 36 40 38 36 34 32 31 30 29 28 29 29 29 29 30 31 32 34 37 37 38 40 36 28 21 19 19 19 19 17 15 13 11 11
11 10 9 11 14 17 18 17 16 15 14 14 14 15 16 16 16 15 14 14 14 14 15 17 18 18 19 21 23 24 25 25 25 26 26 26 26 27 26 26 26 26 27 28 29 30 30 30 30 30 30 34 39 38 35 34 32 31 30 30 29 28 29 30 30 30 32 32 34 37 38 38 38 37 30 24 21 19 19 19 18 16 12 9 8
10 10 12 14 17 19 20 19 16 13 13 15 16 17 17 16 15 15 14 14 15 15 16 17 19 20 20 21 23 24 25 25 25 26 26 26 26 26 26 25 26 27 28 28 29 30 30 30 29 30 31 34 39 38 36 34 34 32 30 30 29 28 29 31 32 31 32 33 34 36 38 37 36 35 32 27 23 21 20 21 22 23 20 15 10
10 11 14 17 20 22 21 19 17 14 13 16 18 18 18 16 15 15 14 15 16 16 16 16 18 20 21 21 23 25 25 24 25 26 26 26 26 26 25 25 26 27 27 28 28 29 30 29 29 31 32 34 38 39 37 35 34 33 31 30 30 29 29 31 33 33 32 33 34 36 37 37 35 33 31 28 26 23 21 21 21 23 23 22 20
15 17 20 22 23 24 22 20 19 16 16 19 20 19 18 17 16 15 14 15 16 16 15 15 18 20 21 21 23 25 25 24 25 25 26 27 26 25 24 24 25 27 27 28 28 28 29 29 30 31 33 34 37 39 38 35 34 33 33 31 30 29 29 30 34 36 35 33 34 35 36 36 35 32 29 26 26 25 23 23 22 20 20 21 22
22 24 25 26 24 22 21 21 20 18 18 21 20 18 18 17 16 15 14 14 16 16 15 16 19 20 20 20 22 25 25 24 25 25 25 26 25 24 23 23 24 26 26 26 26 27 28 30 31 32 32 34 37 40 39 36 34 33 33 32 31 30 28 29 32 35 37 35 32 32 34 35 34 33 29 25 24 24 25 24 23 21 19 18 18
25 26 25 25 24 23 23 22 21 20 20 20 19 17 18 17 16 15 14 13 15 16 15 17 20 20 19 20 22 25 25 24 24 24 23 23 23 23 22 21 23 25 25 24 25 27 28 31 32 32 32 33 36 39 39 38 35 33 32 32 31 30 29 29 30 33 36 36 33 32 33 34 34 33 29 26 24 24 25 24 23 21 20 18 16
28 30 28 26 26 26 24 22 21 21 20 20 18 16 17 17 16 15 14 14 15 15 15 17 19 19 19 20 21 25 27 26 25 24 23 23 23 22 21 21 22 25 25 25 26 28 29 31 32 33 33 34 35 38 39 38 36 33 32 32 31 30 29 29 29 31 34 36 36 35 34 34 34 32 30 28 26 26 27 26 24 22 22 20 16
27 29 29 28 28 27 24 22 21 21 21 19 16 16 17 16 15 15 14 14 14 14 15 17 17 18 19 20 21 24 27 28 28 27 25 25 24 22 22 22 23 25 26 26 27 28 30 31 32 34 35 35 35 37 39 38 37 34 32 31 31 30 27 26 28 30 32 34 36 36 35 34 34 33 32 29 28 29 29 28 26 24 22 19 16
29 29 29 28 27 25 23 21 20 21 20 18 17 17 17 16 15 15 14 13 13 14 14 16 17 17 19 20 20 23 26 27 28 29 28 27 26 25 24 23 24 26 27 28 28 28 29 31 32 33 35 36 36 37 39 39 37 34 32 31 31 29 25 24 27 30 30 32 34 34 34 33 33 33 32 31 30 29 30 30 29 25 21 18 16
28 29 28 26 25 24 22 21 20 19 18 17 17 18 17 15 15 15 14 13 13 13 13 15 17 17 18 19 19 21 23 25 26 28 29 28 27 26 26 25 26 28 28 28 28 28 29 31 32 34 34 35 37 39 40 40 37 34 32 32 31 28 25 24 27 30 30 30 31 32 32 32 33 34 33 32 31 30 31 32 30 26 22 19 18
28 28 27 27 26 24 23 22 20 18 17 17 18 18 17 15 15 15 13 12 13 13 13 14 16 18 18 18 19 19 21 23 24 26 28 28 27 27 27 28 28 29 29 28 28 29 30 31 33 34 35 35 36 39 41 40 38 35 33 31 30 29 28 27 28 28 28 27 28 30 32 33 33 34 34 34 33 32 33 33 32 30 26 22 21
28 29 28 28 27 25 24 24 21 19 17 17 18 19 17 16 15 14 13 13 12 13 13 13 15 17 17 17 18 18 20 22 23 24 26 28 27 27 28 29 30 30 29 28 28 28 29 30 31 32 34 34 35 37 40 40 38 35 33 32 30 29 29 28 27 27 27 26 26 28 32 34 34 35 35 35 35 35 36 35 34 33 31 28 27
27 29 29 28 28 27 26 24 22 20 18 17 18 18 18 17 15 14 14 13 13 12 12 13 15 17 17 17 17 17 19 20 21 22 24 26 27 27 27 28 30 30 29 28 28 27 28 29 29 29 30 31 32 35 39 40 38 35 34 33 32 30 29 29 28 27 27 27 26 26 30 33 34 34 35 36 36 37 38 37 36 35 34 33 32
27 28 28 28 28 27 26 24 22 19 18 17 17 17 18 18 16 14 14 13 13 13 13 14 16 16 17 17 17 17 18 18 19 20 22 24 27 27 27 27 28 30 29 28 27 27 28 28 29 29 28 29 31 33 36 39 38 36 34 34 33 32 31 30 29 28 28 29 29 28 29 32 34 36 37 38 39 38 38 37 38 38 37 35 34
29 30 30 30 29 27 26 25 23 20 19 18 17 16 17 18 16 15 14 14 13 13 13 14 15 16 17 17 17 17 17 17 17 18 20 22 25 26 27 26 27 28 28 28 28 28 28 29 29 29 29 30 32 33 34 37 39 37 35 34 34 34 34 33 32 30 30 33 34 33 33 33 33 35 37 39 39 39 38 38 39 39 39 37 35
29 31 31 30 29 28 26 25 23 21 20 19 17 17 17 17 16 15 15 15 15 14 13 13 13 13 16 18 17 17 16 16 16 17 18 20 23 25 26 25 25 25 27 27 27 27 27 27 28 28 29 30 32 32 32 33 36 36 35 34 34 34 34 34 33 30 30 34 37 39 39 37 35 36 38 40 42 41 40 39 39 38 38 38 37
30 31 31 30 29 28 26 25 23 22 21 19 18 18 17 15 15 16 16 16 16 15 13 13 12 13 17 18 17 16 15 15 15 16 17 19 21 23 25 24 23 23 24 25 25 24 24 24 25 26 26 27 28 27 26 26 29 34 35 34 34 32 31 33 34 34 35 39 43 45 45 43 41 41 42 43 43 42 41 41 40 39 38 39 39
30 30 29 30 29 27 27 26 24 23 22 20 19 19 17 15 16 17 16 16 16 15 14 14 14 15 17 18 16 15 15 14 14 14 16 18 19 21 24 23 22 22 22 23 23 22 21 22 23 24 24 24 23 23 23 23 27 32 35 34 33 33 33 33 35 38 41 44 44 43 42 40 39 39 39 38 37 37 38 39 40 40 39 38 38
30 30 29 29 28 28 28 27 25 24 23 21 20 19 17 16 18 18 16 15 16 16 15 15 16 17 18 18 17 15 14 13 12 12 13 16 18 19 22 22 21 20 20 21 21 20 20 20 21 21 21 21 21 21 23 25 26 30 35 36 36 36 37 37 38 41 44 43 39 37 36 35 35 35 36 35 34 34 33 34 37 39 38 38 37
Wind_Direction
70 69 68 70 72 78 84 85 80 73 69 69 67 62 59 56 51 48 43 40 38 35 34 34 32 31 32 33 34 35 35 33 32 28 28 31 28 23 22 22 21 17 13 14 19 23 21 21 25 28 27 22 21 20 16 14 11 7 3 0 358 353 350 353 353 346 342 343 339 328 301 274 259 251 248 242 228 213 206 202 193 187 189 184 173
60 62 66 71 78 85 86 82 75 70 70 69 67 66 62 58 53 47 40 37 34 32 33 33 32 33 35 34 34 35 35 32 30 28 27 28 26 24 22 20 18 17 17 19 23 22 18 20 25 27 24 20 19 18 16 13 11 8 3 358 357 352 346 347 353 352 344 334 327 318 301 280 256 247 245 240 233 219 210 208 198 189 189 183 173
51 55 63 72 81 86 83 77 75 76 76 73 69 67 61 56 52 45 37 33 32 30 30 29 30 34 38 37 35 36 35 31 30 29 27 26 24 23 21 18 18 22 24 24 24 22 17 19 26 25 21 19 17 15 12 10 8 6 3 357 352 350 346 345 352 355 340 326 320 305 313 309 260 244 244 241 232 219 212 210 200 191 191 183 176
61 50 58 78 81 76 72 71 81 86 82 76 70 65 59 55 49 40 35 33 33 31 29 30 31 34 38 38 36 36 33 29 29 29 26 23 22 22 19 18 20 24 27 24 21 19 16 19 27 25 23 21 18 15 10 6 4 2 0 357 352 347 341 341 346 351 343 333 323 294 300 307 281 258 261 256 232 218 215 211 200 195 192 184 180
83 67 66 83 77 65 69 80 89 87 81 77 72 66 62 55 46 39 36 37 36 32 29 31 33 34 34 33 31 32 30 26 23 22 22 22 23 22 19 19 21 24 25 23 19 16 14 18 27 26 24 22 18 16 11 5 2 360 357 355 354 348 337 334 340 347 345 338 327 307 299 263 293 321 313 280 231 219 219 210 207 206 194 185 183
94 101 97 87 72 67 78 87 89 84 82 82 75 67 60 52 46 43 40 39 37 31 28 30 33 33 32 31 28 25 24 22 19 18 21 24 25 22 20 21 23 24 24 21 19 16 15 21 28 26 23 21 16 12 8 5 1 358 356 352 351 349 340 332 334 341 343 340 331 315 301 283 286 290 272 293 237 227 231 205 204 208 197 190 187
105 107 96 80 73 79 86 88 87 88 88 82 72 64 57 52 49 45 40 38 36 31 28 31 33 34 34 34 31 27 23 22 23 25 25 25 25 23 22 23 23 23 21 19 18 17 18 25 30 25 20 16 11 8 5 2 358 354 354 352 349 348 343 333 328 335 338 334 331 323 311 297 287 279 256 263 256 235 244 205 199 199 195 194 189
122 89 75 86 91 93 89 87 91 92 86 75 69 66 61 55 50 44 40 39 35 31 31 34 34 33 35 36 35 32 28 26 27 28 27 26 26 24 24 23 24 23 19 18 18 17 20 30 32 24 17 13 9 7 2 359 356 353 352 352 350 346 343 335 326 329 331 326 326 324 319 310 295 282 265 250 238 219 233 210 194 182 175 180 182
117 106 109 110 107 97 86 89 96 92 82 76 74 70 61 52 46 42 41 40 36 32 33 36 35 34 35 36 35 33 30 30 29 27 26 25 25 24 22 22 23 21 19 18 17 20 28 33 29 22 17 13 9 6 2 358 355 352 351 350 347 345 345 340 328 325 324 322 323 319 315 313 303 289 269 248 229 218 213 188 171 160 154 156 161
117 123 120 107 101 94 88 93 96 89 83 79 72 62 55 47 42 42 41 40 39 36 35 36 35 35 36 35 34 31 29 30 28 26 25 24 24 23 21 22 22 20 20 18 18 27 37 31 23 20 16 12 9 6 2 359 355 352 352 349 346 345 344 341 332 326 323 319 318 315 310 308 304 293 271 247 224 219 214 169 163 162 143 145 153
124 113 98 90 90 92 93 94 94 88 79 69 60 52 53 50 46 49 46 41 41 38 36 36 35 35 35 35 34 31 29 29 27 25 23 23 22 21 20 21 22 22 20 18 23 35 37 24 19 17 14 11 8 5 2 359 356 354 354 351 348 345 342 338 333 330 326 320 316 313 307 302 296 283 272 256 224 208 202 170 168 168 149 144 155
126 107 97 95 93 92 94 93 89 84 73 64 59 57 64 61 56 56 50 43 42 39 36 34 34 34 33 34 34 32 31 30 28 25 23 22 20 19 20 21 23 23 20 19 29 38 29 21 17 14 13 11 8 5 3 0 358 357 355 350 347 345 342 338 333 330 326 319 314 312 308 304 294 283 281 261 225 208 206 181 157 161 147 131 144
127 119 116 108 104 102 101 96 90 86 80 74 67 68 78 71 60 58 52 45 41 37 34 33 34 34 32 33 33 32 33 33 32 28 26 24 22 20 21 21 22 20 18 23 34 33 25 21 18 15 13 10 8 6 4 2 1 359 355 351 349 347 344 339 332 328 324 316 312 311 308 306 296 287 289 266 230 221 216 194 152 152 138 123 137
133 127 128 125 125 123 116 112 105 98 91 80 68 71 84 75 62 61 56 47 39 35 33 33 34 34 32 34 34 34 34 35 33 31 29 28 25 25 25 24 23 19 20 29 36 28 23 21 18 15 12 10 8 6 3 3 2 0 357 354 352 349 345 342 336 330 324 317 312 310 306 305 298 286 283 268 247 233 212 173 140 138 130 129 136
137 132 138 143 145 140 138 141 127 108 96 84 72 74 84 77 67 64 59 51 41 36 36 35 35 33 33 36 37 37 37 37 36 34 33 32 30 30 30 28 25 23 27 35 33 26 22 19 17 15 12 10 8 5 4 4 5 4 1 359 356 352 348 346 341 336 330 323 318 315 310 307 301 286 276 272 262 246 215 168 144 132 125 131 129
137 134 145 157 158 153 154 154 131 110 100 90 78 74 81 80 71 66 61 53 45 40 38 37 36 34 36 40 40 39 39 39 38 38 37 35 34 34 33 32 28 26 31 38 31 25 23 20 17 14 11 9 7 6 5 7 9 7 3 2 360 354 352 350 346 344 344 341 336 332 324 316 309 291 272 273 269 251 221 175 156 150 143 136 132
143 146 158 167 167 161 162 155 132 117 105 96 84 76 76 75 71 68 59 53 49 44 40 38 38 39 42 44 42 42 41 41 40 40 38 37 37 37 34 32 27 24 32 39 30 26 24 21 17 14 12 10 8 7 9 12 13 9 5 3 359 356 356 355 353 356 3 8 9 3 353 347 346 334 279 272 272 246 218 188 171 162 154 145 139
145 153 161 169 169 167 168 156 134 123 109 100 92 81 74 68 63 60 56 54 51 45 41 41 42 44 46 45 44 44 43 43 42 40 40 40 39 37 33 30 27 27 36 40 30 26 24 20 18 15 12 11 9 9 12 15 15 13 10 6 2 360 359 359 0 5 12 18 25 26 19 16 20 26 27 21 290 209 205 200 189 172 158 151 144
149 156 161 165 159 151 152 147 139 132 117 103 92 81 74 67 57 53 55 55 50 45 45 44 45 48 48 47 46 45 46 45 43 41 42 42 39 34 32 31 31 35 44 41 30 26 23 20 19 16 13 12 11 11 14 16 15 13 10 8 5 2 359 359 3 10 16 19 23 25 22 18 22 35 45 51 69 130 162 192 184 170 156 147 139
162 162 162 166 153 138 136 134 133 129 116 103 92 81 75 69 61 55 56 55 49 47 48 47 49 51 50 49 47 48 48 45 43 43 43 41 36 32 31 32 33 39 46 39 29 26 24 22 21 17 15 13 12 13 16 17 15 13 10 9 6 2 1 360 3 11 19 21 22 24 23 20 23 36 47 49 58 77 62 120 155 150 138 132 133
164 155 147 151 145 140 138 130 124 118 107 98 95 88 78 70 65 58 55 57 56 53 50 51 54 54 51 51 50 48 45 41 42 46 44 40 38 35 33 34 36 40 44 36 28 27 26 23 21 18 16 14 14 16 19 18 16 14 13 9 5 4 3 0 1 9 16 18 21 23 24 24 25 33 44 47 53 79 93 101 125 134 132 131 135
162 143 133 133 133 138 140 131 121 114 106 102 101 95 81 71 68 61 57 63 63 58 55 56 57 54 53 53 51 46 41 41 46 47 43 41 40 38 38 38 39 41 43 35 28 28 27 23 22 20 18 16 17 19 20 19 16 16 15 10 6 5 4 1 2 7 11 15 18 21 25 27 27 32 40 44 49 85 124 117 117 125 128 137 144
136 128 132 133 129 131 132 127 122 117 110 107 106 98 84 74 71 64 63 68 66 61 61 60 58 56 56 55 52 46 43 46 48 45 42 42 40 39 39 41 42 42 42 36 29 28 27 24 23 22 19 18 20 22 22 20 18 19 16 9 7 7 5 4 4 7 9 12 17 20 23 27 29 32 37 41 49 77 123 125 116 118 119 133 151
113 118 124 124 120 120 124 125 124 121 112 108 108 100 86 77 72 67 70 72 67 65 65 62 60 60 59 56 52 47 46 48 47 45 45 43 40 40 41 43 44 42 40 37 30 28 27 25 24 23 20 20 22 23 23 21 20 20 15 8 7 9 7 6 7 9 11 13 16 20 22 26 31 32 31 33 44 64 95 107 108 112 113 124 142
112 111 110 111 112 115 121 123 122 118 113 108 106 101 89 78 72 71 76 74 68 68 67 63 64 63 59 57 54 50 48 49 49 48 46 43 42 43 44 44 45 42 39 37 31 27 26 26 25 23 21 23 26 24 22 21 21 21 18 12 10 9 8 10 12 13 15 15 16 20 22 24 30 32 26 24 34 55 79 95 105 111 112 119 132
122 117 111 111 113 116 121 122 118 116 114 109 104 101 93 82 76 77 79 76 72 70 68 67 68 65 60 58 56 52 50 51 51 49 46 44 44 45 45 45 43 41 40 38 33 27 25 26 26 23 22 25 28 26 23 22 21 22 20 15 13 11 9 12 16 17 19 19 17 18 20 21 26 31 26 19 25 46 73 94 107 114 116 121 131
128 124 120 116 113 113 117 120 115 111 111 109 104 100 95 88 85 84 81 79 75 72 71 71 71 67 62 62 59 54 53 54 53 50 47 46 45 45 45 43 43 44 41 37 35 29 25 26 25 23 23 26 28 27 24 23 23 23 20 15 13 13 12 13 17 20 21 22 21 20 20 19 22 30 27 18 23 47 74 95 109 117 123 129 136
131 126 124 121 115 111 112 116 115 111 109 108 104 101 99 96 93 89 85 81 77 76 75 74 72 69 66 66 63 57 57 58 55 51 49 47 47 46 45 44 45 46 41 37 36 34 30 27 25 24 24 26 28 27 23 21 22 24 22 17 15 15 14 14 18 21 21 22 23 23 22 20 22 33 33 20 28 58 81 95 111 122 130 137 141
136 133 132 128 123 118 115 117 119 118 113 110 106 103 103 103 98 93 89 82 79 79 79 75 73 72 71 69 66 61 60 58 53 52 52 50 48 47 46 46 46 45 41 37 36 34 31 28 25 24 24 26 28 25 21 20 23 25 22 19 18 19 18 15 17 20 20 20 23 24 24 24 27 39 45 32 39 65 85 95 109 127 136 138 138
143 142 139 132 132 129 125 124 127 125 119 115 112 106 108 109 102 96 92 85 82 83 80 76 75 75 74 72 68 63 60 56 54 54 54 52 49 48 47 45 45 44 42 38 35 32 31 29 25 23 24 27 27 23 21 25 28 28 24 20 20 21 20 17 17 19 19 19 22 24 27 29 31 39 50 46 47 60 78 94 108 120 126 129 134
147 146 141 136 137 137 135 134 134 133 128 125 123 116 116 115 106 100 95 88 87 86 82 78 76 78 77 72 68 65 61 58 57 57 55 52 49 48 47 46 45 44 41 37 35 33 31 30 27 23 23 26 26 23 24 27 29 31 29 24 22 22 22 20 19 20 20 19 21 24 28 31 30 35 47 52 49 55 66 82 104 114 109 109 124
151 150 146 142 145 145 145 144 142 142 139 135 132 127 123 118 110 104 100 93 90 88 86 80 76 77 78 73 69 65 62 60 60 58 55 52 49 48 48 46 45 42 38 35 33 32 31 30 29 26 24 24 24 23 25 26 27 32 34 29 27 25 23 22 22 24 25 22 22 25 29 31 31 35 46 53 47 49 59 69 87 108 110 105 114
155 154 152 152 156 154 150 147 145 147 148 144 139 133 127 121 113 108 103 97 93 90 88 82 75 77 80 75 69 64 62 62 62 60 56 53 51 49 47 46 43 39 36 34 32 31 31 30 29 29 27 24 22 23 26 26 27 33 36 33 31 29 26 25 24 27 30 26 24 27 29 31 33 36 42 49 49 48 55 63 70 83 100 115 125
154 153 153 156 158 155 152 149 144 145 149 146 140 132 127 122 114 109 107 103 97 92 91 83 75 78 80 75 68 63 62 63 63 60 57 54 51 50 48 47 44 39 37 35 33 31 31 30 29 29 28 25 22 23 25 26 28 34 37 35 34 33 31 29 27 29 33 29 26 30 32 32 33 35 37 42 47 50 56 60 63 69 76 84 93
153 151 154 156 154 152 152 151 146 145 148 145 138 131 127 121 113 109 110 108 100 93 92 84 76 79 80 74 67 63 63 65 64 61 58 54 52 51 49 48 45 42 39 37 35 33 31 31 29 29 29 27 24 23 26 26 26 32 36 37 36 35 34 33 31 31 35 34 29 32 37 36 34 36 37 41 45 49 54 58 58 63 68 70 72
159 158 158 159 155 151 152 153 149 148 147 144 138 132 126 119 114 113 114 112 103 94 88 83 81 83 80 72 65 63 65 67 65 62 58 53 50 49 49 50 48 45 41 38 36 35 33 31 31 30 30 28 25 25 26 26 26 30 34 36 37 36 34 35 35 34 37 37 31 32 38 39 37 36 37 42 49 51 54 57 56 58 62 66 70
159 159 159 158 156 152 152 153 150 147 145 143 140 133 126 120 116 116 116 115 108 97 88 85 87 86 79 72 66 62 65 68 66 63 59 52 49 50 52 53 50 46 42 38 36 37 36 34 33 31 30 28 27 26 27 27 27 29 33 34 34 35 33 33 36 38 39 39 34 32 37 41 41 39 37 40 49 54 54 54 53 54 58 61 67
153 154 154 154 153 149 148 151 150 146 144 145 143 136 127 121 118 118 119 116 110 102 93 92 93 86 77 74 68 61 64 70 68 64 60 55 53 55 57 58 54 49 45 41 39 40 39 37 35 33 31 30 28 28 29 30 29 30 33 33 32 33 33 31 34 38 40 41 38 35 39 42 41 41 42 43 49 54 53 50 48 49 51 51 55
153 153 152 152 150 145 144 147 148 146 145 146 145 138 128 123 122 122 120 114 109 104 99 99 98 87 79 78 73 65 67 71 69 66 63 60 59 61 63 63 58 52 48 44 42 42 40 38 36 35 33 32 30 29 30 31 31 31 34 34 34 34 32 29 30 35 38 41 41 40 41 43 43 45 48 49 52 56 54 49 46 44 41 38 43
152 153 152 151 149 145 144 144 145 146 148 148 145 136 128 127 127 125 121 116 113 110 105 106 104 92 84 83 78 71 70 72 72 70 68 66 65 66 67 65 60 56 52 48 45 44 42 39 37 36 35 33 30 30 31 32 33 33 34 36 36 35 31 28 31 35 35 37 40 41 40 42 44 47 50 53 56 57 56 53 51 47 38 34 42
152 153 152 151 150 148 146 144 145 147 149 150 145 135 130 132 131 127 123 120 119 117 113 113 111 101 92 89 84 77 74 73 72 70 68 68 68 68 68 66 62 58 54 50 46 44 42 40 38 36 35 34 32 31 31 32 34 35 36 38 38 36 31 30 35 39 37 34 35 37 38 41 44 47 51 55 57 58 59 57 54 51 49 49 55
151 153 154 153 149 147 147 148 149 150 152 152 145 136 134 136 133 129 127 125 124 123 121 121 119 110 101 96 91 84 78 76 73 69 67 67 67 67 67 67 64 60 56 51 47 44 42 40 39 37 34 34 33 32 31 32 33 36 39 40 39 38 37 36 37 39 38 35 34 35 37 40 46 49 52 55 57 58 58 55 52 55 63 65 63
152 155 158 155 149 148 151 153 155 156 156 154 146 139 138 138 134 131 131 129 127 126 123 123 123 118 110 103 98 91 83 78 75 72 69 67 67 68 67 66 64 61 57 52 47 44 42 40 38 36 34 33 33 32 31 32 33 37 41 42 42 42 43 43 41 38 37 36 37 39 40 42 48 52 52 52 55 55 53 51 52 58 64 69 68
155 156 159 156 151 150 152 155 157 157 158 157 150 143 142 140 137 138 139 134 131 129 123 120 124 125 118 111 106 98 88 81 77 73 71 68 67 68 68 67 64 61 57 52 47 44 42 39 36 34 33 33 33 31 30 30 33 37 41 43 45 45 46 46 44 40 38 39 41 43 43 44 49 53 53 53 53 51 49 48 51 56 61 65 66
156 157 159 158 153 151 151 153 156 158 159 158 153 148 147 144 142 144 146 140 135 135 126 120 127 132 127 119 115 105 93 85 79 74 72 70 67 67 69 68 64 61 57 52 47 43 41 39 36 33 32 33 34 32 29 28 31 36 40 43 46 48 48 48 46 42 40 42 45 48 49 48 48 50 52 53 50 47 45 47 49 52 55 56 55
155 157 159 157 153 151 151 151 153 158 159 157 155 154 152 148 145 146 149 145 140 138 129 120 126 136 134 126 121 114 102 92 84 79 76 72 68 67 69 69 65 61 57 53 48 44 41 38 35 33 32 34 36 35 32 28 29 35 40 43 45 47 49 50 49 46 43 45 48 51 52 49 47 47 48 48 46 44 44 45 47 48 48 48 47
157 158 158 155 152 151 151 150 153 158 160 158 158 158 155 152 149 148 150 151 147 143 136 125 126 136 140 135 129 123 114 103 93 86 82 77 71 68 68 69 66 62 58 53 49 45 41 38 35 34 35 35 35 36 34 30 29 33 39 42 44 46 46 47 47 46 45 46 47 48 49 49 46 45 44 44 44 44 42 42 41 41 41 43 44
159 159 158 157 155 154 154 155 156 160 162 161 160 161 160 158 158 157 158 157 152 148 144 137 132 138 145 144 139 132 125 115 105 94 86 80 74 69 70 71 68 63 58 53 51 48 44 41 40 39 40 40 37 36 35 31 29 33 39 42 44 45 45 45 46 45 45 46 46 46 47 46 44 40 38 38 39 39 38 37 37 36 36 38 41
161 162 162 161 159 159 159 160 161 163 163 163 164 166 167 165 163 164 163 158 154 152 147 142 138 138 144 147 144 137 131 125 116 106 95 88 80 73 72 74 72 67 61 56 54 53 52 51 50 48 48 48 46 43 40 36 34 37 42 44 45 46 48 49 49 49 49 47 46 44 42 40 37 34 32 31 31 31 31 32 34 34 33 34 36
162 163 164 164 163 164 163 163 165 166 166 166 167 167 167 164 161 163 163 160 158 157 150 142 136 135 139 143 141 135 132 128 123 116 108 101 92 82 76 75 75 72 66 61 58 58 59 60 60 58 56 57 55 49 44 41 41 42 46 48 50 51 54 53 53 53 52 49 45 42 39 36 34 33 31 28 25 24 24 25 28 30 31 31 31
164 164 164 164 165 167 167 166 168 169 169 169 167 166 166 165 163 166 169 165 160 157 150 142 138 135 134 136 136 134 132 127 123 120 115 111 105 94 82 76 77 78 72 66 65 66 65 63 62 61 60 59 56 49 44 44 46 46 47 49 50 53 55 54 54 55 53 48 43 41 38 35 34 34 31 28 25 24 22 22 23 25 26 27 27